Time,TemperatureF,DewpointF,PressureIn,WindDirection,WindDirectionDegrees,WindSpeedMPH,WindSpeedGustMPH,Humidity,HourlyPrecipIn,Conditions,Clouds,dailyrainin,SoftwareType,DateUTC
2013-04-18 00:00:00,45.7,44.6,29.92,ESE,123,7.0,7.0,96,0.00,,,1.19,Wunderground v.1.15,2013-04-18 04:00:00,
2013-04-18 00:05:00,45.9,44.8,29.93,SSE,148,6.0,8.0,96,0.00,,,0.00,Wunderground v.1.15,2013-04-18 04:05:00,
2013-04-18 00:10:00,46.0,44.9,29.92,SE,124,7.0,7.0,96,1.45,,,0.07,Wunderground v.1.15,2013-04-18 04:10:00,
2013-04-18 00:15:00,46.0,44.9,29.92,ESE,105,6.0,7.0,96,0.19,,,0.11,Wunderground v.1.15,2013-04-18 04:15:00,
2013-04-18 00:20:00,46.1,45.0,29.93,South,177,4.0,4.0,96,0.07,,,0.11,Wunderground v.1.15,2013-04-18 04:20:00,
2013-04-18 00:25:00,46.2,45.1,29.91,ENE,75,2.0,4.0,96,0.05,,,0.11,Wunderground v.1.15,2013-04-18 04:25:00,
2013-04-18 00:35:00,46.6,45.5,29.90,SE,136,5.0,9.0,96,0.00,,,0.11,Wunderground v.1.15,2013-04-18 04:35:00,
2013-04-18 00:40:00,46.8,45.4,29.90,ESE,118,7.0,7.0,95,0.00,,,0.11,Wunderground v.1.15,2013-04-18 04:40:00,
2013-04-18 00:45:00,46.9,45.3,29.89,East,84,7.0,8.0,94,0.00,,,0.11,Wunderground v.1.15,2013-04-18 04:45:00,
2013-04-18 00:50:00,46.9,45.3,29.90,SE,124,8.0,9.0,94,0.00,,,0.11,Wunderground v.1.15,2013-04-18 04:50:00,
2013-04-18 00:55:00,46.7,44.8,29.89,East,100,9.0,9.0,93,0.00,,,0.11,Wunderground v.1.15,2013-04-18 04:55:00,
2013-04-18 01:00:00,46.6,44.7,29.90,SE,131,8.0,8.0,93,0.00,,,0.11,Wunderground v.1.15,2013-04-18 05:00:00,
2013-04-18 01:10:00,46.4,44.5,29.90,ENE,78,4.0,6.0,93,0.00,,,0.11,Wunderground v.1.15,2013-04-18 05:10:00,
2013-04-18 01:15:00,46.3,44.4,29.89,East,94,5.0,11.0,93,0.00,,,0.11,Wunderground v.1.15,2013-04-18 05:15:00,
2013-04-18 01:20:00,46.2,44.3,29.88,East,83,7.0,9.0,93,0.00,,,0.11,Wunderground v.1.15,2013-04-18 05:20:00,
2013-04-18 01:25:00,46.1,44.2,29.88,ESE,117,7.0,9.0,93,0.00,,,0.11,Wunderground v.1.15,2013-04-18 05:25:00,
2013-04-18 01:30:00,46.0,44.1,29.87,ESE,120,6.0,6.0,93,0.00,,,0.11,Wunderground v.1.15,2013-04-18 05:30:00,
2013-04-18 01:35:00,46.0,44.4,29.87,ESE,121,6.0,6.0,94,0.00,,,0.11,Wunderground v.1.15,2013-04-18 05:35:00,
2013-04-18 01:40:00,46.0,44.4,29.87,East,96,6.0,6.0,94,0.00,,,0.11,Wunderground v.1.15,2013-04-18 05:40:00,
2013-04-18 01:45:00,46.0,44.4,29.86,ESE,122,6.0,6.0,94,0.00,,,0.11,Wunderground v.1.15,2013-04-18 05:45:00,
2013-04-18 01:50:00,46.0,44.4,29.86,East,100,5.0,8.0,94,0.00,,,0.11,Wunderground v.1.15,2013-04-18 05:50:00,
2013-04-18 01:55:00,46.0,44.4,29.86,SE,135,5.0,8.0,94,0.00,,,0.11,Wunderground v.1.15,2013-04-18 05:55:00,
2013-04-18 02:00:00,46.0,44.4,29.85,ESE,121,6.0,6.0,94,0.00,,,0.11,Wunderground v.1.15,2013-04-18 06:00:00,
2013-04-18 02:10:00,46.1,44.5,29.85,SE,133,7.0,8.0,94,0.00,,,0.11,Wunderground v.1.15,2013-04-18 06:10:00,
2013-04-18 02:15:00,46.1,44.2,29.84,ESE,117,7.0,8.0,93,0.00,,,0.11,Wunderground v.1.15,2013-04-18 06:15:00,
2013-04-18 02:20:00,46.1,44.2,29.84,SE,138,7.0,9.0,93,0.00,,,0.11,Wunderground v.1.15,2013-04-18 06:20:00,
2013-04-18 02:25:00,46.1,44.2,29.83,ESE,110,7.0,9.0,93,0.00,,,0.11,Wunderground v.1.15,2013-04-18 06:25:00,
2013-04-18 02:30:00,46.1,44.2,29.83,ESE,108,7.0,9.0,93,0.00,,,0.11,Wunderground v.1.15,2013-04-18 06:30:00,
2013-04-18 02:40:00,46.1,44.2,29.82,SE,124,8.0,8.0,93,0.00,,,0.11,Wunderground v.1.15,2013-04-18 06:40:00,
2013-04-18 02:45:00,46.0,44.1,29.81,ESE,111,8.0,8.0,93,0.00,,,0.11,Wunderground v.1.15,2013-04-18 06:45:00,
2013-04-18 02:50:00,46.0,44.1,29.81,SE,134,7.0,7.0,93,0.00,,,0.11,Wunderground v.1.15,2013-04-18 06:50:00,
2013-04-18 02:55:00,46.1,44.5,29.80,SE,134,7.0,7.0,94,0.00,,,0.11,Wunderground v.1.15,2013-04-18 06:55:00,
2013-04-18 03:05:00,46.1,44.5,29.80,ESE,122,6.0,7.0,94,0.00,,,0.11,Wunderground v.1.15,2013-04-18 07:05:00,
2013-04-18 03:10:00,46.3,44.7,29.79,ESE,120,6.0,6.0,94,0.00,,,0.11,Wunderground v.1.15,2013-04-18 07:10:00,
2013-04-18 03:15:00,46.2,44.6,29.79,ESE,121,6.0,7.0,94,0.00,,,0.11,Wunderground v.1.15,2013-04-18 07:15:00,
2013-04-18 03:20:00,46.4,44.8,29.79,SE,145,6.0,6.0,94,0.00,,,0.11,Wunderground v.1.15,2013-04-18 07:20:00,
2013-04-18 03:25:00,46.6,45.0,29.78,ESE,110,6.0,7.0,94,0.00,,,0.11,Wunderground v.1.15,2013-04-18 07:25:00,
2013-04-18 03:30:00,46.8,45.2,29.78,SE,132,6.0,6.0,94,0.00,,,0.11,Wunderground v.1.15,2013-04-18 07:30:00,
2013-04-18 03:35:00,46.9,45.3,29.77,SE,137,6.0,7.0,94,0.00,,,0.11,Wunderground v.1.15,2013-04-18 07:35:00,
2013-04-18 03:45:00,47.1,45.5,29.76,SE,136,6.0,6.0,94,0.00,,,0.11,Wunderground v.1.15,2013-04-18 07:45:00,
2013-04-18 03:50:00,47.2,45.8,29.76,SE,142,6.0,7.0,95,0.00,,,0.11,Wunderground v.1.15,2013-04-18 07:50:00,
2013-04-18 03:55:00,47.4,45.8,29.76,SE,137,6.0,7.0,94,0.00,,,0.11,Wunderground v.1.15,2013-04-18 07:55:00,
2013-04-18 04:00:00,47.5,45.9,29.76,SE,135,5.0,5.0,94,0.00,,,0.11,Wunderground v.1.15,2013-04-18 08:00:00,
2013-04-18 04:10:00,47.9,46.5,29.75,ESE,120,4.0,5.0,95,0.00,,,0.11,Wunderground v.1.15,2013-04-18 08:10:00,
2013-04-18 04:20:00,48.7,47.3,29.75,SSE,160,6.0,6.0,95,0.00,,,0.11,Wunderground v.1.15,2013-04-18 08:20:00,
2013-04-18 04:25:00,48.7,47.1,29.75,ESE,107,5.0,6.0,94,0.00,,,0.11,Wunderground v.1.15,2013-04-18 08:25:00,
2013-04-18 04:30:00,48.7,47.1,29.75,SE,128,4.0,4.0,94,0.00,,,0.11,Wunderground v.1.15,2013-04-18 08:30:00,
2013-04-18 04:35:00,48.8,47.2,29.75,SE,131,4.0,4.0,94,0.00,,,0.11,Wunderground v.1.15,2013-04-18 08:35:00,
2013-04-18 04:40:00,49.0,47.6,29.75,SE,135,3.0,3.0,95,0.00,,,0.11,Wunderground v.1.15,2013-04-18 08:40:00,
2013-04-18 04:50:00,49.5,48.1,29.75,SSW,210,3.0,3.0,95,0.00,,,0.11,Wunderground v.1.15,2013-04-18 08:50:00,
2013-04-18 04:55:00,49.9,48.2,29.77,WNW,302,4.0,5.0,94,0.00,,,0.11,Wunderground v.1.15,2013-04-18 08:55:00,
2013-04-18 05:00:00,49.9,48.2,29.76,NW,313,3.0,3.0,94,0.00,,,0.11,Wunderground v.1.15,2013-04-18 09:00:00,
2013-04-18 05:10:00,50.0,48.3,29.77,NNW,328,3.0,3.0,94,0.00,,,0.11,Wunderground v.1.15,2013-04-18 09:10:00,
2013-04-18 05:15:00,49.9,48.2,29.76,NE,53,2.0,3.0,94,0.00,,,0.11,Wunderground v.1.15,2013-04-18 09:15:00,
2013-04-18 05:25:00,50.0,48.6,29.75,North,5,2.0,3.0,95,0.00,,,0.11,Wunderground v.1.15,2013-04-18 09:25:00,
2013-04-18 05:30:00,50.5,49.4,29.75,NW,314,1.0,2.0,96,0.00,,,0.11,Wunderground v.1.15,2013-04-18 09:30:00,
2013-04-18 05:35:00,50.5,49.1,29.75,NW,311,1.0,2.0,95,0.00,,,0.11,Wunderground v.1.15,2013-04-18 09:35:00,
2013-04-18 05:40:00,50.7,49.3,29.74,ESE,115,1.0,1.0,95,0.00,,,0.11,Wunderground v.1.15,2013-04-18 09:40:00,
2013-04-18 05:45:00,50.6,49.2,29.74,SE,129,0.0,1.0,95,0.00,,,0.11,Wunderground v.1.15,2013-04-18 09:45:00,
2013-04-18 05:55:00,51.0,49.6,29.73,SE,135,3.0,3.0,95,0.00,,,0.11,Wunderground v.1.15,2013-04-18 09:55:00,
2013-04-18 06:00:00,51.3,49.9,29.72,SE,131,3.0,4.0,95,0.00,,,0.11,Wunderground v.1.15,2013-04-18 10:00:00,
2013-04-18 06:10:00,51.4,50.0,29.71,East,94,4.0,5.0,95,0.00,,,0.11,Wunderground v.1.15,2013-04-18 10:10:00,
2013-04-18 06:15:00,51.6,50.2,29.70,SE,129,4.0,7.0,95,0.00,,,0.11,Wunderground v.1.15,2013-04-18 10:15:00,
2013-04-18 06:20:00,51.7,50.3,29.70,ESE,113,4.0,4.0,95,0.00,,,0.11,Wunderground v.1.15,2013-04-18 10:20:00,
2013-04-18 06:30:00,51.9,50.5,29.70,SE,128,4.0,4.0,95,0.00,,,0.11,Wunderground v.1.15,2013-04-18 10:30:00,
2013-04-18 06:35:00,52.0,50.6,29.69,SE,125,3.0,4.0,95,0.00,,,0.11,Wunderground v.1.15,2013-04-18 10:35:00,
2013-04-18 06:40:00,51.9,50.2,29.70,ESE,118,2.0,2.0,94,0.00,,,0.11,Wunderground v.1.15,2013-04-18 10:40:00,
2013-04-18 06:45:00,52.0,50.6,29.69,ESE,107,2.0,4.0,95,0.00,,,0.11,Wunderground v.1.15,2013-04-18 10:45:00,
2013-04-18 06:50:00,52.2,50.8,29.69,ESE,102,3.0,6.0,95,0.00,,,0.11,Wunderground v.1.15,2013-04-18 10:50:00,
2013-04-18 06:55:00,53.1,52.0,29.69,South,186,4.0,6.0,96,0.00,,,0.11,Wunderground v.1.15,2013-04-18 10:55:00,
2013-04-18 07:00:00,53.4,52.0,29.69,SE,142,5.0,5.0,95,0.00,,,0.11,Wunderground v.1.15,2013-04-18 11:00:00,
2013-04-18 07:10:00,54.6,53.2,29.68,SE,128,5.0,5.0,95,0.00,,,0.11,Wunderground v.1.15,2013-04-18 11:10:00,
2013-04-18 07:15:00,55.5,54.1,29.68,SE,124,6.0,10.0,95,0.00,,,0.11,Wunderground v.1.15,2013-04-18 11:15:00,
2013-04-18 07:20:00,55.7,53.4,29.68,South,170,6.0,6.0,92,0.00,,,0.11,Wunderground v.1.15,2013-04-18 11:20:00,
2013-04-18 07:30:00,55.4,53.4,29.67,South,177,4.0,4.0,93,0.00,,,0.11,Wunderground v.1.15,2013-04-18 11:30:00,
2013-04-18 07:35:00,55.5,53.5,29.67,SSW,195,4.0,6.0,93,0.00,,,0.11,Wunderground v.1.15,2013-04-18 11:35:00,
2013-04-18 07:40:00,55.7,54.0,29.67,SSE,162,4.0,6.0,94,0.00,,,0.11,Wunderground v.1.15,2013-04-18 11:40:00,
2013-04-18 07:45:00,56.0,54.3,29.67,South,169,5.0,6.0,94,0.00,,,0.11,Wunderground v.1.15,2013-04-18 11:45:00,
2013-04-18 07:50:00,56.3,54.6,29.67,SSW,198,5.0,9.0,94,0.00,,,0.11,Wunderground v.1.15,2013-04-18 11:50:00,
2013-04-18 07:55:00,56.6,54.9,29.67,South,180,5.0,9.0,94,0.00,,,0.11,Wunderground v.1.15,2013-04-18 11:55:00,
2013-04-18 08:00:00,56.9,55.2,29.67,SSW,198,5.0,7.0,94,0.00,,,0.11,Wunderground v.1.15,2013-04-18 12:00:00,
2013-04-18 08:10:00,57.8,55.8,29.67,South,177,6.0,6.0,93,0.00,,,0.11,Wunderground v.1.15,2013-04-18 12:10:00,
2013-04-18 08:15:00,58.1,56.1,29.67,SSW,198,6.0,7.0,93,0.00,,,0.11,Wunderground v.1.15,2013-04-18 12:15:00,
2013-04-18 08:20:00,58.3,56.3,29.66,SSW,207,6.0,7.0,93,0.00,,,0.11,Wunderground v.1.15,2013-04-18 12:20:00,
2013-04-18 08:25:00,58.7,56.7,29.66,SSE,162,6.0,9.0,93,0.00,,,0.11,Wunderground v.1.15,2013-04-18 12:25:00,
2013-04-18 08:35:00,59.6,57.3,29.65,SSW,204,6.0,10.0,92,0.00,,,0.11,Wunderground v.1.15,2013-04-18 12:35:00,
2013-04-18 08:40:00,60.2,57.9,29.64,SSW,197,7.0,7.0,92,0.00,,,0.11,Wunderground v.1.15,2013-04-18 12:40:00,
2013-04-18 08:45:00,61.0,58.7,29.64,SSW,199,7.0,11.0,92,0.00,,,0.11,Wunderground v.1.15,2013-04-18 12:45:00,
2013-04-18 08:50:00,61.8,59.1,29.64,SW,221,7.0,7.0,91,0.00,,,0.11,Wunderground v.1.15,2013-04-18 12:50:00,
2013-04-18 08:55:00,62.4,59.4,29.64,South,189,8.0,9.0,90,0.00,,,0.11,Wunderground v.1.15,2013-04-18 12:55:00,
2013-04-18 09:00:00,62.8,59.5,29.63,South,182,8.0,8.0,89,0.00,,,0.11,Wunderground v.1.15,2013-04-18 13:00:00,
2013-04-18 09:10:00,63.7,60.1,29.63,SW,233,9.0,16.0,88,0.00,,,0.11,Wunderground v.1.15,2013-04-18 13:10:00,
2013-04-18 09:15:00,64.0,60.4,29.62,SSW,210,9.0,16.0,88,0.00,,,0.11,Wunderground v.1.15,2013-04-18 13:15:00,
2013-04-18 09:20:00,64.1,60.5,29.62,SW,226,9.0,13.0,88,0.00,,,0.11,Wunderground v.1.15,2013-04-18 13:20:00,
2013-04-18 09:25:00,64.5,60.9,29.61,SSW,204,10.0,13.0,88,0.00,,,0.11,Wunderground v.1.15,2013-04-18 13:25:00,
2013-04-18 09:30:00,65.0,61.4,29.61,South,184,10.0,10.0,88,0.00,,,0.11,Wunderground v.1.15,2013-04-18 13:30:00,
2013-04-18 09:40:00,65.5,61.5,29.61,SSW,197,8.0,8.0,87,0.00,,,0.11,Wunderground v.1.15,2013-04-18 13:40:00,
2013-04-18 09:45:00,65.8,61.8,29.61,SW,215,9.0,9.0,87,0.00,,,0.11,Wunderground v.1.15,2013-04-18 13:45:00,
2013-04-18 09:50:00,66.1,62.1,29.61,South,172,8.0,8.0,87,0.00,,,0.11,Wunderground v.1.15,2013-04-18 13:50:00,
2013-04-18 09:55:00,66.3,62.3,29.61,South,179,8.0,11.0,87,0.00,,,0.11,Wunderground v.1.15,2013-04-18 13:55:00,
2013-04-18 10:00:00,66.8,62.8,29.61,SSE,153,8.0,8.0,87,0.00,,,0.11,Wunderground v.1.15,2013-04-18 14:00:00,
2013-04-18 10:10:00,67.4,63.1,29.60,WSW,239,10.0,13.0,86,0.00,,,0.11,Wunderground v.1.15,2013-04-18 14:10:00,
2013-04-18 10:15:00,67.7,63.4,29.60,SSW,207,9.0,13.0,86,0.00,,,0.11,Wunderground v.1.15,2013-04-18 14:15:00,
2013-04-18 10:20:00,68.1,63.4,29.60,SSW,193,10.0,10.0,85,0.00,,,0.11,Wunderground v.1.15,2013-04-18 14:20:00,
2013-04-18 10:25:00,68.5,63.5,29.60,SSE,153,10.0,10.0,84,0.00,,,0.11,Wunderground v.1.15,2013-04-18 14:25:00,
2013-04-18 10:30:00,68.8,63.8,29.60,South,184,10.0,18.0,84,0.00,,,0.11,Wunderground v.1.15,2013-04-18 14:30:00,
2013-04-18 10:35:00,69.2,63.8,29.59,SW,219,12.0,18.0,83,0.00,,,0.11,Wunderground v.1.15,2013-04-18 14:35:00,
2013-04-18 10:40:00,69.5,64.1,29.59,SW,218,13.0,15.0,83,0.00,,,0.11,Wunderground v.1.15,2013-04-18 14:40:00,
2013-04-18 10:45:00,69.9,64.2,29.59,WSW,252,14.0,20.0,82,0.00,,,0.11,Wunderground v.1.15,2013-04-18 14:45:00,
2013-04-18 10:55:00,70.0,64.2,29.58,SW,229,13.0,20.0,82,0.00,,,0.11,Wunderground v.1.15,2013-04-18 14:55:00,
2013-04-18 11:00:00,70.1,64.3,29.58,SE,143,13.0,14.0,82,0.00,,,0.11,Wunderground v.1.15,2013-04-18 15:00:00,
2013-04-18 11:10:00,70.4,64.3,29.56,SSW,210,15.0,15.0,81,0.00,,,0.11,Wunderground v.1.15,2013-04-18 15:10:00,
2013-04-18 11:15:00,71.1,64.6,29.55,SSW,193,17.0,17.0,80,0.00,,,0.11,Wunderground v.1.15,2013-04-18 15:15:00,
2013-04-18 11:20:00,71.2,64.7,29.55,SSW,212,17.0,17.0,80,0.00,,,0.11,Wunderground v.1.15,2013-04-18 15:20:00,
2013-04-18 11:25:00,71.0,64.5,29.55,SW,232,15.0,20.0,80,0.00,,,0.11,Wunderground v.1.15,2013-04-18 15:25:00,
2013-04-18 11:30:00,70.6,64.5,29.55,SSW,212,15.0,15.0,81,0.00,,,0.11,Wunderground v.1.15,2013-04-18 15:30:00,
2013-04-18 11:35:00,69.8,64.7,29.57,SW,233,17.0,17.0,84,0.00,,,0.11,Wunderground v.1.15,2013-04-18 15:35:00,
2013-04-18 11:40:00,69.4,64.7,29.57,WSW,256,15.0,15.0,85,0.00,,,0.11,Wunderground v.1.15,2013-04-18 15:40:00,
2013-04-18 11:50:00,69.2,64.2,29.58,WSW,238,14.0,14.0,84,0.00,,,0.11,Wunderground v.1.15,2013-04-18 15:50:00,
2013-04-18 11:55:00,68.7,64.0,29.58,SW,219,13.0,14.0,85,0.00,,,0.11,Wunderground v.1.15,2013-04-18 15:55:00,
2013-04-18 12:00:00,68.2,62.8,29.59,SW,233,12.0,12.0,83,0.00,,,0.11,Wunderground v.1.15,2013-04-18 16:00:00,
2013-04-18 12:10:00,67.6,62.3,29.60,SW,229,10.0,11.0,83,0.00,,,0.11,Wunderground v.1.15,2013-04-18 16:10:00,
2013-04-18 12:20:00,67.5,61.8,29.59,West,279,10.0,18.0,82,0.00,,,0.11,Wunderground v.1.15,2013-04-18 16:20:00,
2013-04-18 12:25:00,67.1,61.8,29.60,West,259,9.0,18.0,83,0.00,,,0.11,Wunderground v.1.15,2013-04-18 16:25:00,
2013-04-18 12:30:00,66.6,61.9,29.60,West,278,10.0,10.0,85,0.00,,,0.11,Wunderground v.1.15,2013-04-18 16:30:00,
2013-04-18 12:35:00,66.2,61.9,29.60,SSW,202,9.0,10.0,86,0.00,,,0.11,Wunderground v.1.15,2013-04-18 16:35:00,
2013-04-18 12:40:00,65.7,60.7,29.60,WSW,245,9.0,9.0,84,0.00,,,0.12,Wunderground v.1.15,2013-04-18 16:40:00,
2013-04-18 12:45:00,65.2,60.6,29.61,West,264,9.0,11.0,85,0.00,,,0.12,Wunderground v.1.15,2013-04-18 16:45:00,
2013-04-18 12:55:00,64.7,60.4,29.60,WSW,240,8.0,8.0,86,0.00,,,0.13,Wunderground v.1.15,2013-04-18 16:55:00,
2013-04-18 13:00:00,64.6,60.6,29.61,SW,219,7.0,10.0,87,0.00,,,0.13,Wunderground v.1.15,2013-04-18 17:00:00,
2013-04-18 13:10:00,64.5,60.9,29.61,WSW,239,8.0,8.0,88,0.00,,,0.13,Wunderground v.1.15,2013-04-18 17:10:00,
2013-04-18 13:15:00,64.5,61.2,29.61,South,188,7.0,8.0,89,0.00,,,0.13,Wunderground v.1.15,2013-04-18 17:15:00,
2013-04-18 13:25:00,64.2,61.2,29.64,West,261,8.0,11.0,90,0.00,,,0.13,Wunderground v.1.15,2013-04-18 17:25:00,
2013-04-18 13:30:00,63.9,60.9,29.64,SW,226,10.0,16.0,90,0.00,,,0.13,Wunderground v.1.15,2013-04-18 17:30:00,
2013-04-18 13:35:00,63.5,60.5,29.63,SSW,203,11.0,16.0,90,0.00,,,0.13,Wunderground v.1.15,2013-04-18 17:35:00,
2013-04-18 13:40:00,63.3,60.3,29.63,SSW,205,11.0,11.0,90,0.00,,,0.13,Wunderground v.1.15,2013-04-18 17:40:00,
2013-04-18 13:45:00,62.9,60.2,29.63,SW,236,11.0,11.0,91,0.00,,,0.13,Wunderground v.1.15,2013-04-18 17:45:00,
2013-04-18 13:50:00,62.6,59.9,29.63,SW,215,10.0,10.0,91,0.00,,,0.13,Wunderground v.1.15,2013-04-18 17:50:00,
2013-04-18 14:00:00,62.3,59.9,29.61,SSW,210,7.0,7.0,92,0.00,,,0.14,Wunderground v.1.15,2013-04-18 18:00:00,
2013-04-18 14:10:00,62.1,60.1,29.60,SW,215,6.0,6.0,93,0.00,,,0.14,Wunderground v.1.15,2013-04-18 18:10:00,
2013-04-18 14:15:00,62.2,60.2,29.61,West,259,5.0,6.0,93,0.04,,,0.15,Wunderground v.1.15,2013-04-18 18:15:00,
2013-04-18 14:20:00,62.2,60.2,29.61,WSW,239,5.0,8.0,93,0.04,,,0.15,Wunderground v.1.15,2013-04-18 18:20:00,
2013-04-18 14:30:00,62.0,60.0,29.63,WSW,240,6.0,6.0,93,0.04,,,0.16,Wunderground v.1.15,2013-04-18 18:30:00,
2013-04-18 14:35:00,61.8,59.8,29.65,SSW,207,7.0,7.0,93,0.04,,,0.16,Wunderground v.1.15,2013-04-18 18:35:00,
2013-04-18 14:40:00,61.7,59.7,29.64,SSW,210,8.0,8.0,93,0.06,,,0.17,Wunderground v.1.15,2013-04-18 18:40:00,
2013-04-18 14:45:00,61.5,59.8,29.64,SW,221,7.0,8.0,94,0.13,,,0.18,Wunderground v.1.15,2013-04-18 18:45:00,
2013-04-18 14:50:00,61.4,59.4,29.64,WSW,239,8.0,8.0,93,0.06,,,0.18,Wunderground v.1.15,2013-04-18 18:50:00,
2013-04-18 14:55:00,61.4,59.4,29.64,SW,232,8.0,8.0,93,0.04,,,0.18,Wunderground v.1.15,2013-04-18 18:55:00,
2013-04-18 15:00:00,61.3,59.3,29.64,West,266,8.0,8.0,93,0.00,,,0.18,Wunderground v.1.15,2013-04-18 19:00:00,
2013-04-18 15:10:00,61.3,59.6,29.64,SW,215,7.0,7.0,94,0.00,,,0.19,Wunderground v.1.15,2013-04-18 19:10:00,
2013-04-18 15:15:00,61.3,59.6,29.64,SSW,212,6.0,7.0,94,0.00,,,0.19,Wunderground v.1.15,2013-04-18 19:15:00,
2013-04-18 15:20:00,61.3,59.6,29.64,SSW,211,6.0,6.0,94,0.00,,,0.19,Wunderground v.1.15,2013-04-18 19:20:00,
2013-04-18 15:25:00,61.3,59.6,29.64,SW,226,7.0,7.0,94,0.00,,,0.19,Wunderground v.1.15,2013-04-18 19:25:00,
2013-04-18 15:35:00,61.4,59.7,29.64,WSW,245,7.0,7.0,94,0.00,,,0.19,Wunderground v.1.15,2013-04-18 19:35:00,
2013-04-18 15:40:00,61.4,59.7,29.64,South,191,7.0,7.0,94,0.00,,,0.20,Wunderground v.1.15,2013-04-18 19:40:00,
2013-04-18 15:45:00,61.4,59.4,29.64,SSW,210,7.0,7.0,93,0.00,,,0.20,Wunderground v.1.15,2013-04-18 19:45:00,
2013-04-18 15:50:00,61.4,59.7,29.65,SW,235,8.0,8.0,94,0.06,,,0.21,Wunderground v.1.15,2013-04-18 19:50:00,
2013-04-18 15:55:00,61.3,59.6,29.64,SW,229,7.0,8.0,94,0.06,,,0.21,Wunderground v.1.15,2013-04-18 19:55:00,
2013-04-18 16:00:00,61.2,59.5,29.64,SW,217,6.0,6.0,94,0.05,,,0.21,Wunderground v.1.15,2013-04-18 20:00:00,
2013-04-18 16:10:00,61.4,59.7,29.63,SSW,213,6.0,8.0,94,0.00,,,0.21,Wunderground v.1.15,2013-04-18 20:10:00,
2013-04-18 16:15:00,61.4,59.7,29.63,SW,222,6.0,8.0,94,0.00,,,0.21,Wunderground v.1.15,2013-04-18 20:15:00,
2013-04-18 16:20:00,61.4,59.7,29.63,SSW,208,5.0,6.0,94,0.00,,,0.21,Wunderground v.1.15,2013-04-18 20:20:00,
2013-04-18 16:25:00,61.3,59.6,29.62,SW,226,6.0,6.0,94,0.00,,,0.21,Wunderground v.1.15,2013-04-18 20:25:00,
2013-04-18 16:30:00,61.1,59.4,29.63,WSW,243,6.0,6.0,94,0.00,,,0.22,Wunderground v.1.15,2013-04-18 20:30:00,
2013-04-18 16:40:00,61.0,59.3,29.63,SW,229,6.0,6.0,94,0.00,,,0.22,Wunderground v.1.15,2013-04-18 20:40:00,
2013-04-18 16:45:00,60.9,59.2,29.62,SSW,195,6.0,9.0,94,0.05,,,0.23,Wunderground v.1.15,2013-04-18 20:45:00,
2013-04-18 16:50:00,60.8,59.1,29.64,WSW,243,7.0,8.0,94,0.05,,,0.23,Wunderground v.1.15,2013-04-18 20:50:00,
2013-04-18 16:55:00,60.8,59.1,29.63,SW,215,7.0,8.0,94,0.06,,,0.24,Wunderground v.1.15,2013-04-18 20:55:00,
2013-04-18 17:00:00,60.9,59.2,29.62,SSW,212,7.0,7.0,94,0.11,,,0.25,Wunderground v.1.15,2013-04-18 21:00:00,
2013-04-18 17:10:00,61.0,59.3,29.61,SSW,195,7.0,7.0,94,0.05,,,0.25,Wunderground v.1.15,2013-04-18 21:10:00,
2013-04-18 17:15:00,61.0,59.3,29.61,South,179,8.0,8.0,94,0.00,,,0.25,Wunderground v.1.15,2013-04-18 21:15:00,
2013-04-18 17:20:00,60.9,59.2,29.63,SW,236,7.0,9.0,94,0.00,,,0.26,Wunderground v.1.15,2013-04-18 21:20:00,
2013-04-18 17:25:00,60.7,59.0,29.64,South,171,8.0,9.0,94,0.00,,,0.26,Wunderground v.1.15,2013-04-18 21:25:00,
2013-04-18 17:30:00,60.5,58.8,29.64,SW,214,9.0,9.0,94,0.07,,,0.27,Wunderground v.1.15,2013-04-18 21:30:00,
2013-04-18 17:35:00,60.4,58.7,29.63,WSW,248,9.0,9.0,94,0.06,,,0.27,Wunderground v.1.15,2013-04-18 21:35:00,
2013-04-18 17:45:00,60.2,58.5,29.62,WSW,241,8.0,10.0,94,0.04,,,0.28,Wunderground v.1.15,2013-04-18 21:45:00,
2013-04-18 17:50:00,60.2,58.8,29.62,SW,233,7.0,8.0,95,0.06,,,0.29,Wunderground v.1.15,2013-04-18 21:50:00,
2013-04-18 17:55:00,60.1,58.7,29.62,SSW,205,7.0,8.0,95,0.06,,,0.29,Wunderground v.1.15,2013-04-18 21:55:00,
2013-04-18 18:00:00,60.1,58.7,29.63,SW,226,7.0,7.0,95,0.05,,,0.29,Wunderground v.1.15,2013-04-18 22:00:00,
2013-04-18 18:10:00,60.0,58.6,29.62,SW,226,6.0,7.0,95,0.00,,,0.29,Wunderground v.1.15,2013-04-18 22:10:00,
2013-04-18 18:15:00,60.0,58.6,29.63,South,191,6.0,7.0,95,0.00,,,0.30,Wunderground v.1.15,2013-04-18 22:15:00,
2013-04-18 18:20:00,59.9,58.5,29.64,SW,221,6.0,7.0,95,0.00,,,0.30,Wunderground v.1.15,2013-04-18 22:20:00,
2013-04-18 18:25:00,59.9,58.5,29.64,SSW,212,6.0,7.0,95,0.00,,,0.30,Wunderground v.1.15,2013-04-18 22:25:00,
2013-04-18 18:30:00,59.9,58.5,29.63,SSW,194,6.0,6.0,95,0.00,,,0.31,Wunderground v.1.15,2013-04-18 22:30:00,
2013-04-18 18:35:00,59.8,58.4,29.63,SW,233,4.0,6.0,95,0.00,,,0.31,Wunderground v.1.15,2013-04-18 22:35:00,
2013-04-18 18:40:00,59.7,58.3,29.63,SW,228,5.0,7.0,95,0.08,,,0.32,Wunderground v.1.15,2013-04-18 22:40:00,
2013-04-18 18:50:00,59.5,58.1,29.61,SW,225,4.0,4.0,95,0.09,,,0.33,Wunderground v.1.15,2013-04-18 22:50:00,
2013-04-18 19:00:00,59.3,57.9,29.61,South,183,4.0,6.0,95,0.06,,,0.34,Wunderground v.1.15,2013-04-18 23:00:00,
2013-04-18 19:10:00,59.2,58.1,29.63,SW,215,5.0,5.0,96,0.04,,,0.34,Wunderground v.1.15,2013-04-18 23:10:00,
2013-04-18 19:15:00,59.2,58.1,29.64,South,173,5.0,8.0,96,0.00,,,0.34,Wunderground v.1.15,2013-04-18 23:15:00,
2013-04-18 19:20:00,59.2,58.1,29.63,South,177,6.0,7.0,96,0.00,,,0.34,Wunderground v.1.15,2013-04-18 23:20:00,
2013-04-18 19:30:00,59.3,58.2,29.63,SW,226,7.0,7.0,96,0.00,,,0.35,Wunderground v.1.15,2013-04-18 23:30:00,
2013-04-18 19:35:00,59.2,58.1,29.63,SW,222,7.0,7.0,96,0.00,,,0.35,Wunderground v.1.15,2013-04-18 23:35:00,
2013-04-18 19:40:00,59.2,58.1,29.63,SSW,203,6.0,6.0,96,0.05,,,0.36,Wunderground v.1.15,2013-04-18 23:40:00,
2013-04-18 19:45:00,59.1,58.0,29.63,WSW,240,6.0,6.0,96,0.05,,,0.36,Wunderground v.1.15,2013-04-18 23:45:00,
2013-04-18 19:50:00,59.0,57.9,29.62,SW,221,5.0,6.0,96,0.07,,,0.37,Wunderground v.1.15,2013-04-18 23:50:00,
2013-04-18 20:00:00,59.0,57.9,29.59,SE,131,5.0,5.0,96,0.11,,,0.40,Wunderground v.1.15,2013-04-19 00:00:00,
2013-04-18 20:10:00,58.8,57.7,29.58,South,181,3.0,4.0,96,0.06,,,0.41,Wunderground v.1.15,2013-04-19 00:10:00,
2013-04-18 20:15:00,58.7,57.6,29.58,SSE,155,4.0,5.0,96,0.06,,,0.41,Wunderground v.1.15,2013-04-19 00:15:00,
2013-04-18 20:20:00,58.7,57.6,29.58,SSE,149,5.0,5.0,96,0.06,,,0.41,Wunderground v.1.15,2013-04-19 00:20:00,
2013-04-18 20:25:00,58.6,57.5,29.57,SE,135,5.0,5.0,96,0.06,,,0.42,Wunderground v.1.15,2013-04-19 00:25:00,
2013-04-18 20:30:00,58.5,57.4,29.57,South,183,4.0,7.0,96,0.06,,,0.43,Wunderground v.1.15,2013-04-19 00:30:00,
2013-04-18 20:35:00,58.4,57.6,29.56,SE,145,5.0,11.0,97,0.06,,,0.43,Wunderground v.1.15,2013-04-19 00:35:00,
2013-04-18 20:40:00,58.3,57.2,29.55,SSE,160,7.0,7.0,96,0.06,,,0.43,Wunderground v.1.15,2013-04-19 00:40:00,
2013-04-18 20:45:00,58.3,57.5,29.56,SSE,153,7.0,7.0,97,0.04,,,0.43,Wunderground v.1.15,2013-04-19 00:45:00,
2013-04-18 20:50:00,58.2,57.4,29.57,South,169,7.0,7.0,97,0.00,,,0.43,Wunderground v.1.15,2013-04-19 00:50:00,
2013-04-18 20:55:00,58.2,57.4,29.55,South,169,7.0,7.0,97,0.00,,,0.43,Wunderground v.1.15,2013-04-19 00:55:00,
2013-04-18 21:00:00,58.2,57.4,29.55,SSE,155,8.0,8.0,97,0.00,,,0.44,Wunderground v.1.15,2013-04-19 01:00:00,
2013-04-18 21:10:00,58.2,57.4,29.55,SSE,166,8.0,8.0,97,0.00,,,0.44,Wunderground v.1.15,2013-04-19 01:10:00,
2013-04-18 21:15:00,58.2,57.1,29.56,SSE,166,8.0,15.0,96,0.00,,,0.44,Wunderground v.1.15,2013-04-19 01:15:00,
2013-04-18 21:20:00,58.3,57.2,29.55,South,177,9.0,9.0,96,0.00,,,0.44,Wunderground v.1.15,2013-04-19 01:20:00,
2013-04-18 21:25:00,58.4,57.3,29.56,South,183,11.0,12.0,96,0.00,,,0.44,Wunderground v.1.15,2013-04-19 01:25:00,
2013-04-18 21:35:00,58.4,57.0,29.57,SSE,151,11.0,11.0,95,0.13,,,0.46,Wunderground v.1.15,2013-04-19 01:35:00,
2013-04-18 21:40:00,58.3,57.2,29.57,SSE,155,10.0,15.0,96,0.11,,,0.46,Wunderground v.1.15,2013-04-19 01:40:00,
2013-04-18 21:45:00,58.3,56.9,29.57,South,181,11.0,15.0,95,0.08,,,0.47,Wunderground v.1.15,2013-04-19 01:45:00,
2013-04-18 21:50:00,58.3,56.9,29.57,SSE,158,11.0,11.0,95,0.14,,,0.48,Wunderground v.1.15,2013-04-19 01:50:00,
2013-04-18 21:55:00,58.2,56.8,29.56,SSE,151,9.0,11.0,95,0.12,,,0.49,Wunderground v.1.15,2013-04-19 01:55:00,
2013-04-18 22:00:00,58.1,57.0,29.55,South,174,8.0,8.0,96,0.12,,,0.50,Wunderground v.1.15,2013-04-19 02:00:00,
2013-04-18 22:10:00,58.0,56.9,29.56,South,169,7.0,8.0,96,0.18,,,0.53,Wunderground v.1.15,2013-04-19 02:10:00,
2013-04-18 22:15:00,57.9,56.8,29.55,SSW,194,8.0,8.0,96,0.11,,,0.53,Wunderground v.1.15,2013-04-19 02:15:00,
2013-04-18 22:20:00,57.8,56.7,29.54,SSE,156,8.0,8.0,96,0.09,,,0.54,Wunderground v.1.15,2013-04-19 02:20:00,
2013-04-18 22:25:00,57.7,56.6,29.54,SSE,153,8.0,13.0,96,0.10,,,0.55,Wunderground v.1.15,2013-04-19 02:25:00,
2013-04-18 22:30:00,57.7,56.6,29.54,South,169,8.0,8.0,96,0.15,,,0.56,Wunderground v.1.15,2013-04-19 02:30:00,
2013-04-18 22:40:00,57.6,56.5,29.53,SSE,152,7.0,8.0,96,0.08,,,0.58,Wunderground v.1.15,2013-04-19 02:40:00,
2013-04-18 22:45:00,57.6,56.5,29.53,South,190,8.0,8.0,96,0.11,,,0.59,Wunderground v.1.15,2013-04-19 02:45:00,
2013-04-18 22:50:00,57.5,56.4,29.52,SE,135,8.0,9.0,96,0.12,,,0.60,Wunderground v.1.15,2013-04-19 02:50:00,
2013-04-18 22:55:00,57.5,56.4,29.52,South,181,8.0,9.0,96,0.16,,,0.61,Wunderground v.1.15,2013-04-19 02:55:00,
2013-04-18 23:00:00,57.4,56.3,29.51,SW,226,8.0,8.0,96,0.15,,,0.62,Wunderground v.1.15,2013-04-19 03:00:00,
2013-04-18 23:10:00,57.4,56.6,29.51,SE,131,7.0,7.0,97,0.13,,,0.64,Wunderground v.1.15,2013-04-19 03:10:00,
2013-04-18 23:15:00,57.4,56.6,29.51,SSW,207,6.0,11.0,97,0.23,,,0.66,Wunderground v.1.15,2013-04-19 03:15:00,
2013-04-18 23:20:00,57.4,56.6,29.51,South,170,7.0,7.0,97,0.16,,,0.67,Wunderground v.1.15,2013-04-19 03:20:00,
2013-04-18 23:25:00,57.4,56.6,29.50,SSE,155,7.0,7.0,97,0.14,,,0.68,Wunderground v.1.15,2013-04-19 03:25:00,
2013-04-18 23:30:00,57.4,56.6,29.50,SSE,156,6.0,6.0,97,0.15,,,0.70,Wunderground v.1.15,2013-04-19 03:30:00,
2013-04-18 23:35:00,57.4,56.6,29.50,SSE,149,7.0,8.0,97,0.18,,,0.71,Wunderground v.1.15,2013-04-19 03:35:00,
2013-04-18 23:45:00,57.4,56.6,29.49,SSW,195,8.0,11.0,97,0.23,,,0.75,Wunderground v.1.15,2013-04-19 03:45:00,
2013-04-18 23:50:00,57.4,56.6,29.49,SSE,150,8.0,8.0,97,0.20,,,0.77,Wunderground v.1.15,2013-04-19 03:50:00,
2013-04-18 23:55:00,57.5,56.7,29.49,South,184,8.0,8.0,97,0.22,,,0.79,Wunderground v.1.15,2013-04-19 03:55:00,